owner,sensor,date,latitude,longitude,mass_concentration_of_chlorophyll_in_sea_water,qcFlag 
SCCF RECON,ioos:station:SCCF:12:1,2008-09-01T00:00:00Z,26.4966,-82.1479,3.94,1111122 
SCCF RECON,ioos:station:SCCF:12:1,2008-09-01T01:00:00Z,26.4966,-82.1479,3.92,1111122 
SCCF RECON,ioos:station:SCCF:12:1,2008-09-01T02:00:00Z,26.4966,-82.1479,3.68,1111122 
SCCF RECON,ioos:station:SCCF:12:1,2008-09-01T03:00:00Z,26.4966,-82.1479,3.33,1111122 
SCCF RECON,ioos:station:SCCF:12:1,2008-09-01T04:00:00Z,26.4966,-82.1479,3.44,1111122 
SCCF RECON,ioos:station:SCCF:12:1,2008-09-01T05:00:00Z,26.4966,-82.1479,3.55,1111122 
SCCF RECON,ioos:station:SCCF:12:1,2008-09-01T06:00:00Z,26.4966,-82.1479,3.3,1111122 
SCCF RECON,ioos:station:SCCF:12:1,2008-09-01T07:00:00Z,26.4966,-82.1479,3.27,1111122 
SCCF RECON,ioos:station:SCCF:12:1,2008-09-01T08:00:00Z,26.4966,-82.1479,3.64,1111122 
SCCF RECON,ioos:station:SCCF:12:1,2008-09-01T09:00:00Z,26.4966,-82.1479,4.61,1111122 
SCCF RECON,ioos:station:SCCF:12:1,2008-09-01T10:00:00Z,26.4966,-82.1479,4.68,1111122 
SCCF RECON,ioos:station:SCCF:12:1,2008-09-01T11:00:00Z,26.4966,-82.1479,4.99,1111122 
SCCF RECON,ioos:station:SCCF:12:1,2008-09-01T12:00:00Z,26.4966,-82.1479,4.42,1111122 
SCCF RECON,ioos:station:SCCF:12:1,2008-09-01T13:00:00Z,26.4966,-82.1479,3.9,1111122 
SCCF RECON,ioos:station:SCCF:12:1,2008-09-01T14:00:00Z,26.4966,-82.1479,3.62,1111122 
SCCF RECON,ioos:station:SCCF:12:1,2008-09-01T15:00:00Z,26.4966,-82.1479,3.42,1111122 
SCCF RECON,ioos:station:SCCF:12:1,2008-09-01T16:00:00Z,26.4966,-82.1479,4.26,1111122 
SCCF RECON,ioos:station:SCCF:12:1,2008-09-01T17:00:00Z,26.4966,-82.1479,3.84,1111122 
SCCF RECON,ioos:station:SCCF:12:1,2008-09-01T18:00:00Z,26.4966,-82.1479,4.84,1111122 
SCCF RECON,ioos:station:SCCF:12:1,2008-09-01T19:00:00Z,26.4966,-82.1479,3.62,1111122 
SCCF RECON,ioos:station:SCCF:12:1,2008-09-01T20:00:00Z,26.4966,-82.1479,4.23,1111122 
SCCF RECON,ioos:station:SCCF:12:1,2008-09-01T21:00:00Z,26.4966,-82.1479,4.45,1111122 
SCCF RECON,ioos:station:SCCF:12:1,2008-09-01T22:00:00Z,26.4966,-82.1479,4.19,1111122 
SCCF RECON,ioos:station:SCCF:12:1,2008-09-01T23:00:00Z,26.4966,-82.1479,3.66,1111122 
SCCF RECON,ioos:station:SCCF:12:1,2008-09-02T00:00:00Z,26.4966,-82.1479,6.1,1111122 
SCCF RECON,ioos:station:SCCF:12:1,2008-09-02T01:00:00Z,26.4966,-82.1479,6.98,1111122 
SCCF RECON,ioos:station:SCCF:12:1,2008-09-02T02:00:00Z,26.4966,-82.1479,4.68,1111122 
SCCF RECON,ioos:station:SCCF:12:1,2008-09-02T03:00:00Z,26.4966,-82.1479,4.29,1111122 
SCCF RECON,ioos:station:SCCF:12:1,2008-09-02T04:00:00Z,26.4966,-82.1479,4.3,1111122 
SCCF RECON,ioos:station:SCCF:12:1,2008-09-02T05:00:00Z,26.4966,-82.1479,4.07,1111122 
SCCF RECON,ioos:station:SCCF:12:1,2008-09-02T06:00:00Z,26.4966,-82.1479,3.72,1111122 
SCCF RECON,ioos:station:SCCF:12:1,2008-09-02T07:00:00Z,26.4966,-82.1479,3.51,1111122 
SCCF RECON,ioos:station:SCCF:12:1,2008-09-02T08:00:00Z,26.4966,-82.1479,3.95,1111122 
SCCF RECON,ioos:station:SCCF:12:1,2008-09-02T09:00:00Z,26.4966,-82.1479,4.55,1111122 
SCCF RECON,ioos:station:SCCF:12:1,2008-09-02T10:00:00Z,26.4966,-82.1479,4.03,1111122 
SCCF RECON,ioos:station:SCCF:12:1,2008-09-02T11:00:00Z,26.4966,-82.1479,4.61,1111122 
SCCF RECON,ioos:station:SCCF:12:1,2008-09-02T12:00:00Z,26.4966,-82.1479,5.33,1111122 
SCCF RECON,ioos:station:SCCF:12:1,2008-09-02T13:00:00Z,26.4966,-82.1479,5.51,1111122 
SCCF RECON,ioos:station:SCCF:12:1,2008-09-02T14:00:00Z,26.4966,-82.1479,3.92,1111122 
SCCF RECON,ioos:station:SCCF:12:1,2008-09-02T15:00:00Z,26.4966,-82.1479,3.37,1111122 
SCCF RECON,ioos:station:SCCF:12:1,2008-09-02T16:00:00Z,26.4966,-82.1479,3.56,1111122 
SCCF RECON,ioos:station:SCCF:12:1,2008-09-02T17:00:00Z,26.4966,-82.1479,4.42,1111122 
SCCF RECON,ioos:station:SCCF:12:1,2008-09-02T18:00:00Z,26.4966,-82.1479,4.07,1111122 
SCCF RECON,ioos:station:SCCF:12:1,2008-09-02T19:00:00Z,26.4966,-82.1479,5.11,1111122 
SCCF RECON,ioos:station:SCCF:12:1,2008-09-02T20:00:00Z,26.4966,-82.1479,6.13,1111122 
SCCF RECON,ioos:station:SCCF:12:1,2008-09-02T21:00:00Z,26.4966,-82.1479,6.49,1111122 
SCCF RECON,ioos:station:SCCF:12:1,2008-09-02T22:00:00Z,26.4966,-82.1479,8.15,1111122 
SCCF RECON,ioos:station:SCCF:12:1,2008-09-02T23:00:00Z,26.4966,-82.1479,6.47,1111122 
SCCF RECON,ioos:station:SCCF:12:1,2008-09-03T00:00:00Z,26.4966,-82.1479,6.53,1111122 
SCCF RECON,ioos:station:SCCF:12:1,2008-09-03T01:00:00Z,26.4966,-82.1479,5.76,1111122 
SCCF RECON,ioos:station:SCCF:12:1,2008-09-03T02:00:00Z,26.4966,-82.1479,5.94,1111122 
SCCF RECON,ioos:station:SCCF:12:1,2008-09-03T03:00:00Z,26.4966,-82.1479,5.79,1111122 
SCCF RECON,ioos:station:SCCF:12:1,2008-09-03T04:00:00Z,26.4966,-82.1479,5.5,1111122 
SCCF RECON,ioos:station:SCCF:12:1,2008-09-03T05:00:00Z,26.4966,-82.1479,4.76,1111122 
SCCF RECON,ioos:station:SCCF:12:1,2008-09-03T06:00:00Z,26.4966,-82.1479,4.43,1111122 
SCCF RECON,ioos:station:SCCF:12:1,2008-09-03T07:00:00Z,26.4966,-82.1479,4.06,1111122 
SCCF RECON,ioos:station:SCCF:12:1,2008-09-03T08:00:00Z,26.4966,-82.1479,4.54,1111122 
SCCF RECON,ioos:station:SCCF:12:1,2008-09-03T09:00:00Z,26.4966,-82.1479,4.98,1111122 
SCCF RECON,ioos:station:SCCF:12:1,2008-09-03T10:00:00Z,26.4966,-82.1479,5.41,1111122 
SCCF RECON,ioos:station:SCCF:12:1,2008-09-03T11:00:00Z,26.4966,-82.1479,5.12,1111122 
SCCF RECON,ioos:station:SCCF:12:1,2008-09-03T12:00:00Z,26.4966,-82.1479,4.97,1111122 
SCCF RECON,ioos:station:SCCF:12:1,2008-09-03T13:00:00Z,26.4966,-82.1479,4.91,1111122 
SCCF RECON,ioos:station:SCCF:12:1,2008-09-03T14:00:00Z,26.4966,-82.1479,4.8,1111122 
SCCF RECON,ioos:station:SCCF:12:1,2008-09-03T15:00:00Z,26.4966,-82.1479,4.99,1111122 
SCCF RECON,ioos:station:SCCF:12:1,2008-09-03T16:00:00Z,26.4966,-82.1479,4.94,1111122 
SCCF RECON,ioos:station:SCCF:12:1,2008-09-03T17:00:00Z,26.4966,-82.1479,5.1,1111122 
SCCF RECON,ioos:station:SCCF:12:1,2008-09-03T18:00:00Z,26.4966,-82.1479,4.6,1111122 
SCCF RECON,ioos:station:SCCF:12:1,2008-09-03T19:00:00Z,26.4966,-82.1479,4.24,1111122 
SCCF RECON,ioos:station:SCCF:12:1,2008-09-03T20:00:00Z,26.4966,-82.1479,4.7,1111122 
SCCF RECON,ioos:station:SCCF:12:1,2008-09-03T21:00:00Z,26.4966,-82.1479,6.55,1111122 
SCCF RECON,ioos:station:SCCF:12:1,2008-09-03T22:00:00Z,26.4966,-82.1479,5.99,1111122 
SCCF RECON,ioos:station:SCCF:12:1,2008-09-03T23:00:00Z,26.4966,-82.1479,5.67,1111122 
SCCF RECON,ioos:station:SCCF:12:1,2008-09-04T00:00:00Z,26.4966,-82.1479,9.35,1111122 
SCCF RECON,ioos:station:SCCF:12:1,2008-09-04T01:00:00Z,26.4966,-82.1479,9.11,1111122 
SCCF RECON,ioos:station:SCCF:12:1,2008-09-04T02:00:00Z,26.4966,-82.1479,5.62,1111122 
SCCF RECON,ioos:station:SCCF:12:1,2008-09-04T03:00:00Z,26.4966,-82.1479,5.73,1111122 
SCCF RECON,ioos:station:SCCF:12:1,2008-09-04T04:00:00Z,26.4966,-82.1479,5.79,1111122 
SCCF RECON,ioos:station:SCCF:12:1,2008-09-04T05:00:00Z,26.4966,-82.1479,5.08,1111122 
SCCF RECON,ioos:station:SCCF:12:1,2008-09-04T06:00:00Z,26.4966,-82.1479,4.66,1111122 
SCCF RECON,ioos:station:SCCF:12:1,2008-09-04T07:00:00Z,26.4966,-82.1479,3.69,1111122 
SCCF RECON,ioos:station:SCCF:12:1,2008-09-04T08:00:00Z,26.4966,-82.1479,4.12,1111122 
SCCF RECON,ioos:station:SCCF:12:1,2008-09-04T09:00:00Z,26.4966,-82.1479,5.22,1111122 
SCCF RECON,ioos:station:SCCF:12:1,2008-09-04T10:00:00Z,26.4966,-82.1479,5.31,1111122 
SCCF RECON,ioos:station:SCCF:12:1,2008-09-04T11:00:00Z,26.4966,-82.1479,5.43,1111122 
SCCF RECON,ioos:station:SCCF:12:1,2008-09-04T12:00:00Z,26.4966,-82.1479,5.22,1111122 
SCCF RECON,ioos:station:SCCF:12:1,2008-09-04T13:00:00Z,26.4966,-82.1479,5.85,1111122 
SCCF RECON,ioos:station:SCCF:12:1,2008-09-04T14:00:00Z,26.4966,-82.1479,5.57,1111122 
SCCF RECON,ioos:station:SCCF:12:1,2008-09-04T15:00:00Z,26.4966,-82.1479,4.83,1111122 
SCCF RECON,ioos:station:SCCF:12:1,2008-09-04T16:00:00Z,26.4966,-82.1479,6.01,1111122 
SCCF RECON,ioos:station:SCCF:12:1,2008-09-04T17:00:00Z,26.4966,-82.1479,7.1,1111122 
SCCF RECON,ioos:station:SCCF:12:1,2008-09-04T18:00:00Z,26.4966,-82.1479,5.61,1111122 
SCCF RECON,ioos:station:SCCF:12:1,2008-09-04T19:00:00Z,26.4966,-82.1479,8.95,1111122 
SCCF RECON,ioos:station:SCCF:12:1,2008-09-04T20:00:00Z,26.4966,-82.1479,11.26,1111122 
SCCF RECON,ioos:station:SCCF:12:1,2008-09-04T21:00:00Z,26.4966,-82.1479,9.35,1111122 
SCCF RECON,ioos:station:SCCF:12:1,2008-09-04T22:00:00Z,26.4966,-82.1479,7.47,1111122 
SCCF RECON,ioos:station:SCCF:12:1,2008-09-04T23:00:00Z,26.4966,-82.1479,10.44,1111122 
SCCF RECON,ioos:station:SCCF:12:1,2008-09-05T00:00:00Z,26.4966,-82.1479,10.97,1111122 
SCCF RECON,ioos:station:SCCF:12:1,2008-09-05T01:00:00Z,26.4966,-82.1479,9.36,1111122 
SCCF RECON,ioos:station:SCCF:12:1,2008-09-05T02:00:00Z,26.4966,-82.1479,13.21,1111122 
SCCF RECON,ioos:station:SCCF:12:1,2008-09-05T03:00:00Z,26.4966,-82.1479,12.09,1111122 
SCCF RECON,ioos:station:SCCF:12:1,2008-09-05T04:00:00Z,26.4966,-82.1479,12.0,1111122 
SCCF RECON,ioos:station:SCCF:12:1,2008-09-05T05:00:00Z,26.4966,-82.1479,10.95,1111122 
SCCF RECON,ioos:station:SCCF:12:1,2008-09-05T06:00:00Z,26.4966,-82.1479,9.93,1111122 
SCCF RECON,ioos:station:SCCF:12:1,2008-09-05T07:00:00Z,26.4966,-82.1479,10.57,1111122 
SCCF RECON,ioos:station:SCCF:12:1,2008-09-05T08:00:00Z,26.4966,-82.1479,9.89,1111122 
SCCF RECON,ioos:station:SCCF:12:1,2008-09-05T09:00:00Z,26.4966,-82.1479,9.43,1111122 
SCCF RECON,ioos:station:SCCF:12:1,2008-09-05T10:00:00Z,26.4966,-82.1479,8.61,1111122 
SCCF RECON,ioos:station:SCCF:12:1,2008-09-05T11:00:00Z,26.4966,-82.1479,7.86,1111122 
SCCF RECON,ioos:station:SCCF:12:1,2008-09-05T12:00:00Z,26.4966,-82.1479,7.32,1111122 
SCCF RECON,ioos:station:SCCF:12:1,2008-09-05T13:00:00Z,26.4966,-82.1479,7.88,1111122 
SCCF RECON,ioos:station:SCCF:12:1,2008-09-05T14:00:00Z,26.4966,-82.1479,7.92,1111122 
SCCF RECON,ioos:station:SCCF:12:1,2008-09-05T15:00:00Z,26.4966,-82.1479,8.1,1111122 
SCCF RECON,ioos:station:SCCF:12:1,2008-09-05T16:00:00Z,26.4966,-82.1479,9.37,1111122 
SCCF RECON,ioos:station:SCCF:12:1,2008-09-05T17:00:00Z,26.4966,-82.1479,8.93,1111122 
SCCF RECON,ioos:station:SCCF:12:1,2008-09-05T18:00:00Z,26.4966,-82.1479,8.66,1111122 
SCCF RECON,ioos:station:SCCF:12:1,2008-09-05T19:00:00Z,26.4966,-82.1479,8.46,1111122 
SCCF RECON,ioos:station:SCCF:12:1,2008-09-05T20:00:00Z,26.4966,-82.1479,8.73,1111122 
SCCF RECON,ioos:station:SCCF:12:1,2008-09-05T21:00:00Z,26.4966,-82.1479,8.49,1111122 
SCCF RECON,ioos:station:SCCF:12:1,2008-09-05T22:00:00Z,26.4966,-82.1479,8.6,1111122 
SCCF RECON,ioos:station:SCCF:12:1,2008-09-05T23:00:00Z,26.4966,-82.1479,8.12,1111122 
SCCF RECON,ioos:station:SCCF:12:1,2008-09-06T00:00:00Z,26.4966,-82.1479,7.51,1111122 
SCCF RECON,ioos:station:SCCF:12:1,2008-09-06T01:00:00Z,26.4966,-82.1479,6.47,1111122 
SCCF RECON,ioos:station:SCCF:12:1,2008-09-06T02:00:00Z,26.4966,-82.1479,6.39,1111122 
SCCF RECON,ioos:station:SCCF:12:1,2008-09-06T03:00:00Z,26.4966,-82.1479,6.28,1111122 
SCCF RECON,ioos:station:SCCF:12:1,2008-09-06T04:00:00Z,26.4966,-82.1479,6.26,1111122 
SCCF RECON,ioos:station:SCCF:12:1,2008-09-06T05:00:00Z,26.4966,-82.1479,5.63,1111122 
SCCF RECON,ioos:station:SCCF:12:1,2008-09-06T06:00:00Z,26.4966,-82.1479,6.25,1111122 
SCCF RECON,ioos:station:SCCF:12:1,2008-09-06T07:00:00Z,26.4966,-82.1479,5.61,1111122 
SCCF RECON,ioos:station:SCCF:12:1,2008-09-06T08:00:00Z,26.4966,-82.1479,5.47,1111122 
SCCF RECON,ioos:station:SCCF:12:1,2008-09-06T09:00:00Z,26.4966,-82.1479,5.34,1111122 
SCCF RECON,ioos:station:SCCF:12:1,2008-09-06T10:00:00Z,26.4966,-82.1479,4.85,1111122 
SCCF RECON,ioos:station:SCCF:12:1,2008-09-06T11:00:00Z,26.4966,-82.1479,4.34,1111122 
SCCF RECON,ioos:station:SCCF:12:1,2008-09-06T12:00:00Z,26.4966,-82.1479,4.33,1111122 
SCCF RECON,ioos:station:SCCF:12:1,2008-09-06T13:00:00Z,26.4966,-82.1479,4.48,1111122 
SCCF RECON,ioos:station:SCCF:12:1,2008-09-06T14:00:00Z,26.4966,-82.1479,4.56,1111122 
SCCF RECON,ioos:station:SCCF:12:1,2008-09-06T15:00:00Z,26.4966,-82.1479,5.24,1111122 
SCCF RECON,ioos:station:SCCF:12:1,2008-09-06T16:00:00Z,26.4966,-82.1479,5.31,1111122 
SCCF RECON,ioos:station:SCCF:12:1,2008-09-06T17:00:00Z,26.4966,-82.1479,7.6,1111122 
SCCF RECON,ioos:station:SCCF:12:1,2008-09-06T18:00:00Z,26.4966,-82.1479,8.25,1111122 
SCCF RECON,ioos:station:SCCF:12:1,2008-09-06T19:00:00Z,26.4966,-82.1479,9.31,1111122 
SCCF RECON,ioos:station:SCCF:12:1,2008-09-06T20:00:00Z,26.4966,-82.1479,10.39,1111122 
SCCF RECON,ioos:station:SCCF:12:1,2008-09-06T21:00:00Z,26.4966,-82.1479,11.2,1111122 
SCCF RECON,ioos:station:SCCF:12:1,2008-09-06T22:00:00Z,26.4966,-82.1479,11.18,1111122 
SCCF RECON,ioos:station:SCCF:12:1,2008-09-06T23:00:00Z,26.4966,-82.1479,9.86,1111122 
SCCF RECON,ioos:station:SCCF:12:1,2008-09-07T00:00:00Z,26.4966,-82.1479,11.53,1111122 
SCCF RECON,ioos:station:SCCF:12:1,2008-09-07T01:00:00Z,26.4966,-82.1479,10.2,1111122 
SCCF RECON,ioos:station:SCCF:12:1,2008-09-07T02:00:00Z,26.4966,-82.1479,11.98,1111122 
SCCF RECON,ioos:station:SCCF:12:1,2008-09-07T03:00:00Z,26.4966,-82.1479,8.47,1111122 
SCCF RECON,ioos:station:SCCF:12:1,2008-09-07T04:00:00Z,26.4966,-82.1479,7.05,1111122 
SCCF RECON,ioos:station:SCCF:12:1,2008-09-07T05:00:00Z,26.4966,-82.1479,8.37,1111122 
SCCF RECON,ioos:station:SCCF:12:1,2008-09-07T06:00:00Z,26.4966,-82.1479,7.03,1111122 
SCCF RECON,ioos:station:SCCF:12:1,2008-09-07T07:00:00Z,26.4966,-82.1479,6.9,1111122 
SCCF RECON,ioos:station:SCCF:12:1,2008-09-07T08:00:00Z,26.4966,-82.1479,6.68,1111122 
SCCF RECON,ioos:station:SCCF:12:1,2008-09-07T09:00:00Z,26.4966,-82.1479,5.73,1111122 
SCCF RECON,ioos:station:SCCF:12:1,2008-09-07T10:00:00Z,26.4966,-82.1479,5.52,1111122 
SCCF RECON,ioos:station:SCCF:12:1,2008-09-07T11:00:00Z,26.4966,-82.1479,5.08,1111122 
SCCF RECON,ioos:station:SCCF:12:1,2008-09-07T12:00:00Z,26.4966,-82.1479,4.96,1111122 
SCCF RECON,ioos:station:SCCF:12:1,2008-09-07T13:00:00Z,26.4966,-82.1479,4.56,1111122 
SCCF RECON,ioos:station:SCCF:12:1,2008-09-07T14:00:00Z,26.4966,-82.1479,5.34,1111122 
SCCF RECON,ioos:station:SCCF:12:1,2008-09-07T15:00:00Z,26.4966,-82.1479,6.15,1111122 
SCCF RECON,ioos:station:SCCF:12:1,2008-09-07T16:00:00Z,26.4966,-82.1479,6.74,1111122 
SCCF RECON,ioos:station:SCCF:12:1,2008-09-07T17:00:00Z,26.4966,-82.1479,6.4,1111122 
SCCF RECON,ioos:station:SCCF:12:1,2008-09-07T18:00:00Z,26.4966,-82.1479,7.63,1111122 
SCCF RECON,ioos:station:SCCF:12:1,2008-09-07T19:00:00Z,26.4966,-82.1479,8.32,1111122 
SCCF RECON,ioos:station:SCCF:12:1,2008-09-07T20:00:00Z,26.4966,-82.1479,7.82,1111122 
SCCF RECON,ioos:station:SCCF:12:1,2008-09-07T21:00:00Z,26.4966,-82.1479,7.15,1111122 
SCCF RECON,ioos:station:SCCF:12:1,2008-09-07T22:00:00Z,26.4966,-82.1479,5.77,1111122 
SCCF RECON,ioos:station:SCCF:12:1,2008-09-07T23:00:00Z,26.4966,-82.1479,6.53,1111122 
SCCF RECON,ioos:station:SCCF:12:1,2008-09-08T00:00:00Z,26.4966,-82.1479,5.94,1111122 
SCCF RECON,ioos:station:SCCF:12:1,2008-09-08T01:00:00Z,26.4966,-82.1479,5.88,1111122 
SCCF RECON,ioos:station:SCCF:12:1,2008-09-08T02:00:00Z,26.4966,-82.1479,5.05,1111122 
SCCF RECON,ioos:station:SCCF:12:1,2008-09-08T03:00:00Z,26.4966,-82.1479,5.19,1111122 
SCCF RECON,ioos:station:SCCF:12:1,2008-09-08T04:00:00Z,26.4966,-82.1479,5.81,1111122 
SCCF RECON,ioos:station:SCCF:12:1,2008-09-08T05:00:00Z,26.4966,-82.1479,5.42,1111122 
SCCF RECON,ioos:station:SCCF:12:1,2008-09-08T06:00:00Z,26.4966,-82.1479,6.1,1111122 
SCCF RECON,ioos:station:SCCF:12:1,2008-09-08T07:00:00Z,26.4966,-82.1479,5.81,1111122 
SCCF RECON,ioos:station:SCCF:12:1,2008-09-08T08:00:00Z,26.4966,-82.1479,5.52,1111122 
SCCF RECON,ioos:station:SCCF:12:1,2008-09-08T09:00:00Z,26.4966,-82.1479,5.75,1111122 
SCCF RECON,ioos:station:SCCF:12:1,2008-09-08T10:00:00Z,26.4966,-82.1479,5.63,1111122 
SCCF RECON,ioos:station:SCCF:12:1,2008-09-08T11:00:00Z,26.4966,-82.1479,6.79,1111122 
SCCF RECON,ioos:station:SCCF:12:1,2008-09-08T12:00:00Z,26.4966,-82.1479,6.54,1111122 
SCCF RECON,ioos:station:SCCF:12:1,2008-09-08T13:00:00Z,26.4966,-82.1479,5.41,1111122 
SCCF RECON,ioos:station:SCCF:12:1,2008-09-08T14:00:00Z,26.4966,-82.1479,7.83,1111122 
SCCF RECON,ioos:station:SCCF:12:1,2008-09-08T15:00:00Z,26.4966,-82.1479,6.15,1111122 
SCCF RECON,ioos:station:SCCF:12:1,2008-09-08T16:00:00Z,26.4966,-82.1479,7.79,1111122 
SCCF RECON,ioos:station:SCCF:12:1,2008-09-08T17:00:00Z,26.4966,-82.1479,6.54,1111122 
SCCF RECON,ioos:station:SCCF:12:1,2008-09-08T18:00:00Z,26.4966,-82.1479,10.09,1111122 
SCCF RECON,ioos:station:SCCF:12:1,2008-09-08T19:00:00Z,26.4966,-82.1479,6.56,1111122 
SCCF RECON,ioos:station:SCCF:12:1,2008-09-08T20:00:00Z,26.4966,-82.1479,6.98,1111122 
SCCF RECON,ioos:station:SCCF:12:1,2008-09-08T21:00:00Z,26.4966,-82.1479,7.56,1111122 
SCCF RECON,ioos:station:SCCF:12:1,2008-09-08T22:00:00Z,26.4966,-82.1479,7.92,1111122 
SCCF RECON,ioos:station:SCCF:12:1,2008-09-08T23:00:00Z,26.4966,-82.1479,8.15,1111122 
SCCF RECON,ioos:station:SCCF:12:1,2008-09-09T00:00:00Z,26.4966,-82.1479,9.59,1111122 
SCCF RECON,ioos:station:SCCF:12:1,2008-09-09T01:00:00Z,26.4966,-82.1479,10.77,1111122 
SCCF RECON,ioos:station:SCCF:12:1,2008-09-09T02:00:00Z,26.4966,-82.1479,7.88,1111122 
SCCF RECON,ioos:station:SCCF:12:1,2008-09-09T03:00:00Z,26.4966,-82.1479,6.43,1111122 
SCCF RECON,ioos:station:SCCF:12:1,2008-09-09T04:00:00Z,26.4966,-82.1479,7.25,1111122 
SCCF RECON,ioos:station:SCCF:12:1,2008-09-09T05:00:00Z,26.4966,-82.1479,7.34,1111122 
SCCF RECON,ioos:station:SCCF:12:1,2008-09-09T06:00:00Z,26.4966,-82.1479,7.14,1111122 
SCCF RECON,ioos:station:SCCF:12:1,2008-09-09T07:00:00Z,26.4966,-82.1479,5.94,1111122 
SCCF RECON,ioos:station:SCCF:12:1,2008-09-09T08:00:00Z,26.4966,-82.1479,11.3,1111122 
SCCF RECON,ioos:station:SCCF:12:1,2008-09-09T09:00:00Z,26.4966,-82.1479,11.59,1111122 
SCCF RECON,ioos:station:SCCF:12:1,2008-09-09T10:00:00Z,26.4966,-82.1479,9.71,1111122 
SCCF RECON,ioos:station:SCCF:12:1,2008-09-09T11:00:00Z,26.4966,-82.1479,10.7,1111122 
SCCF RECON,ioos:station:SCCF:12:1,2008-09-09T12:00:00Z,26.4966,-82.1479,9.26,1111122 
SCCF RECON,ioos:station:SCCF:12:1,2008-09-09T13:00:00Z,26.4966,-82.1479,7.08,1111122 
SCCF RECON,ioos:station:SCCF:12:1,2008-09-09T14:00:00Z,26.4966,-82.1479,6.6,1111122 
SCCF RECON,ioos:station:SCCF:12:1,2008-09-09T15:00:00Z,26.4966,-82.1479,8.43,1111122 
SCCF RECON,ioos:station:SCCF:12:1,2008-09-09T16:00:00Z,26.4966,-82.1479,8.22,1111122 
SCCF RECON,ioos:station:SCCF:12:1,2008-09-09T17:00:00Z,26.4966,-82.1479,8.34,1111122 
SCCF RECON,ioos:station:SCCF:12:1,2008-09-09T18:00:00Z,26.4966,-82.1479,9.86,1111122 
SCCF RECON,ioos:station:SCCF:12:1,2008-09-09T19:00:00Z,26.4966,-82.1479,9.63,1111122 
SCCF RECON,ioos:station:SCCF:12:1,2008-09-09T20:00:00Z,26.4966,-82.1479,11.05,1111122 
SCCF RECON,ioos:station:SCCF:12:1,2008-09-09T21:00:00Z,26.4966,-82.1479,10.72,1111122 
SCCF RECON,ioos:station:SCCF:12:1,2008-09-09T22:00:00Z,26.4966,-82.1479,12.67,1111122 
SCCF RECON,ioos:station:SCCF:12:1,2008-09-09T23:00:00Z,26.4966,-82.1479,10.93,1111122 
SCCF RECON,ioos:station:SCCF:12:1,2008-09-10T00:00:00Z,26.4966,-82.1479,10.74,1111122 
SCCF RECON,ioos:station:SCCF:12:1,2008-09-10T01:00:00Z,26.4966,-82.1479,10.42,1111122 
SCCF RECON,ioos:station:SCCF:12:1,2008-09-10T02:00:00Z,26.4966,-82.1479,10.63,1111122 
SCCF RECON,ioos:station:SCCF:12:1,2008-09-10T03:00:00Z,26.4966,-82.1479,12.33,1111122 
SCCF RECON,ioos:station:SCCF:12:1,2008-09-10T04:00:00Z,26.4966,-82.1479,10.48,1111122 
SCCF RECON,ioos:station:SCCF:12:1,2008-09-10T05:00:00Z,26.4966,-82.1479,10.77,1111122 
SCCF RECON,ioos:station:SCCF:12:1,2008-09-10T06:00:00Z,26.4966,-82.1479,9.15,1111122 
SCCF RECON,ioos:station:SCCF:12:1,2008-09-10T07:00:00Z,26.4966,-82.1479,9.93,1111122 
SCCF RECON,ioos:station:SCCF:12:1,2008-09-10T08:00:00Z,26.4966,-82.1479,9.37,1111122 
SCCF RECON,ioos:station:SCCF:12:1,2008-09-10T09:00:00Z,26.4966,-82.1479,9.36,1111122 
SCCF RECON,ioos:station:SCCF:12:1,2008-09-10T10:00:00Z,26.4966,-82.1479,9.22,1111122 
SCCF RECON,ioos:station:SCCF:12:1,2008-09-10T11:00:00Z,26.4966,-82.1479,9.22,1111122 
SCCF RECON,ioos:station:SCCF:12:1,2008-09-10T12:00:00Z,26.4966,-82.1479,9.73,1111122 
SCCF RECON,ioos:station:SCCF:12:1,2008-09-10T13:00:00Z,26.4966,-82.1479,9.24,1111122 
SCCF RECON,ioos:station:SCCF:12:1,2008-09-10T14:00:00Z,26.4966,-82.1479,8.25,1111122 
SCCF RECON,ioos:station:SCCF:12:1,2008-09-10T15:00:00Z,26.4966,-82.1479,7.66,1111122 
SCCF RECON,ioos:station:SCCF:12:1,2008-09-10T16:00:00Z,26.4966,-82.1479,6.4,1111122 
SCCF RECON,ioos:station:SCCF:12:1,2008-09-10T17:00:00Z,26.4966,-82.1479,6.07,1111122 
SCCF RECON,ioos:station:SCCF:12:1,2008-09-10T18:00:00Z,26.4966,-82.1479,6.45,1111122 
SCCF RECON,ioos:station:SCCF:12:1,2008-09-10T19:00:00Z,26.4966,-82.1479,6.22,1111122 
SCCF RECON,ioos:station:SCCF:12:1,2008-09-10T20:00:00Z,26.4966,-82.1479,6.06,1111122 
SCCF RECON,ioos:station:SCCF:12:1,2008-09-10T21:00:00Z,26.4966,-82.1479,5.66,1111122 
SCCF RECON,ioos:station:SCCF:12:1,2008-09-10T22:00:00Z,26.4966,-82.1479,6.31,1111122 
SCCF RECON,ioos:station:SCCF:12:1,2008-09-10T23:00:00Z,26.4966,-82.1479,6.08,1111122 
SCCF RECON,ioos:station:SCCF:12:1,2008-09-11T00:00:00Z,26.4966,-82.1479,5.69,1111122 
SCCF RECON,ioos:station:SCCF:12:1,2008-09-11T01:00:00Z,26.4966,-82.1479,4.56,1111122 
SCCF RECON,ioos:station:SCCF:12:1,2008-09-11T02:00:00Z,26.4966,-82.1479,4.57,1111122 
SCCF RECON,ioos:station:SCCF:12:1,2008-09-11T03:00:00Z,26.4966,-82.1479,3.72,1111122 
SCCF RECON,ioos:station:SCCF:12:1,2008-09-11T04:00:00Z,26.4966,-82.1479,3.89,1111122 
SCCF RECON,ioos:station:SCCF:12:1,2008-09-11T05:00:00Z,26.4966,-82.1479,3.96,1111122 
SCCF RECON,ioos:station:SCCF:12:1,2008-09-11T06:00:00Z,26.4966,-82.1479,2.61,1111122 
SCCF RECON,ioos:station:SCCF:12:1,2008-09-11T07:00:00Z,26.4966,-82.1479,2.61,1111122 
SCCF RECON,ioos:station:SCCF:12:1,2008-09-11T08:00:00Z,26.4966,-82.1479,2.58,1111122 
SCCF RECON,ioos:station:SCCF:12:1,2008-09-11T09:00:00Z,26.4966,-82.1479,2.58,1111122 
SCCF RECON,ioos:station:SCCF:12:1,2008-09-11T10:00:00Z,26.4966,-82.1479,2.75,1111122 
SCCF RECON,ioos:station:SCCF:12:1,2008-09-11T11:00:00Z,26.4966,-82.1479,2.77,1111122 
SCCF RECON,ioos:station:SCCF:12:1,2008-09-11T12:00:00Z,26.4966,-82.1479,2.64,1111122 
SCCF RECON,ioos:station:SCCF:12:1,2008-09-11T13:00:00Z,26.4966,-82.1479,2.36,1111122 
SCCF RECON,ioos:station:SCCF:12:1,2008-09-11T14:00:00Z,26.4966,-82.1479,2.42,1111122 
SCCF RECON,ioos:station:SCCF:12:1,2008-09-11T15:00:00Z,26.4966,-82.1479,2.13,1111122 
SCCF RECON,ioos:station:SCCF:12:1,2008-09-11T16:00:00Z,26.4966,-82.1479,2.65,1111122 
SCCF RECON,ioos:station:SCCF:12:1,2008-09-11T17:00:00Z,26.4966,-82.1479,2.86,1111122 
SCCF RECON,ioos:station:SCCF:12:1,2008-09-11T18:00:00Z,26.4966,-82.1479,2.73,1111122 
SCCF RECON,ioos:station:SCCF:12:1,2008-09-11T19:00:00Z,26.4966,-82.1479,2.59,1111122 
SCCF RECON,ioos:station:SCCF:12:1,2008-09-11T20:00:00Z,26.4966,-82.1479,3.16,1111122 
SCCF RECON,ioos:station:SCCF:12:1,2008-09-11T21:00:00Z,26.4966,-82.1479,3.9,1111122 
SCCF RECON,ioos:station:SCCF:12:1,2008-09-11T22:00:00Z,26.4966,-82.1479,5.04,1111122 
SCCF RECON,ioos:station:SCCF:12:1,2008-09-11T23:00:00Z,26.4966,-82.1479,5.23,1111122 
SCCF RECON,ioos:station:SCCF:12:1,2008-09-12T00:00:00Z,26.4966,-82.1479,5.11,1111122 
SCCF RECON,ioos:station:SCCF:12:1,2008-09-12T01:00:00Z,26.4966,-82.1479,5.41,1111122 
SCCF RECON,ioos:station:SCCF:12:1,2008-09-12T02:00:00Z,26.4966,-82.1479,5.66,1111122 
SCCF RECON,ioos:station:SCCF:12:1,2008-09-12T03:00:00Z,26.4966,-82.1479,5.36,1111122 
SCCF RECON,ioos:station:SCCF:12:1,2008-09-12T04:00:00Z,26.4966,-82.1479,4.71,1111122 
SCCF RECON,ioos:station:SCCF:12:1,2008-09-12T05:00:00Z,26.4966,-82.1479,4.88,1111122 
SCCF RECON,ioos:station:SCCF:12:1,2008-09-12T06:00:00Z,26.4966,-82.1479,4.26,1111122 
SCCF RECON,ioos:station:SCCF:12:1,2008-09-12T07:00:00Z,26.4966,-82.1479,4.08,1111122 
SCCF RECON,ioos:station:SCCF:12:1,2008-09-12T08:00:00Z,26.4966,-82.1479,3.59,1111122 
SCCF RECON,ioos:station:SCCF:12:1,2008-09-12T09:00:00Z,26.4966,-82.1479,4.24,1111122 
SCCF RECON,ioos:station:SCCF:12:1,2008-09-12T10:00:00Z,26.4966,-82.1479,4.2,1111122 
SCCF RECON,ioos:station:SCCF:12:1,2008-09-12T11:00:00Z,26.4966,-82.1479,4.47,1111122 
SCCF RECON,ioos:station:SCCF:12:1,2008-09-12T12:00:00Z,26.4966,-82.1479,4.05,1111122 